GW0795 Weather Reports


Display with metric or nautical units.
time (UTC)temp
F
wind
direction
speed
MPH
gust
MPH
rain 1hr
in
rain 24hr
in
rain mn
in
humidity
%
barometer
mb
20260509162515 56 284 2.0 4.0 0.00 0.00 0.00 79 1021.8
20260509162007 56 292 3.0 4.0 0.00 0.00 0.00 79 1021.9
20260509161514 56 279 2.0 4.0 0.00 0.00 0.00 80 1021.9
20260509161007 55 255 1.0 4.0 0.00 0.00 0.00 82 1021.9
20260509160507 55 323 2.0 4.0 0.00 0.00 0.00 81 1022.0
20260509160016 55 268 2.0 4.0 0.00 0.00 0.00 82 1022.0
20260509155507 55 272 2.0 4.0 0.00 0.00 0.00 82 1022.1
20260509155010 55 284 1.0 6.0 0.00 0.00 0.00 82 1022.2
20260509154524 55 286 2.0 6.0 0.00 0.00 0.00 81 1022.2
20260509154008 55 277 1.0 2.0 0.00 0.00 0.00 81 1022.2
20260509153512 55 248 1.0 2.0 0.00 0.00 0.00 80 1022.2
20260509153031 54 331 1.0 3.0 0.00 0.00 0.00 81 1022.2
20260509152510 54 119 1.0 3.0 0.00 0.00 0.00 82 1022.2
20260509152011 54 110 1.0 4.0 0.00 0.00 0.00 82 1022.2
20260509151526 54 129 1.0 4.0 0.00 0.00 0.00 82 1022.2
20260509151006 54 91 1.0 3.0 0.00 0.00 0.00 82 1022.2
20260509150509 54 94 2.0 3.0 0.00 0.00 0.00 83 1022.3
20260509150018 53 91 0.0 3.0 0.00 0.00 0.00 83 1022.4
20260509145508 53 98 0.0 3.0 0.00 0.00 0.00 85 1022.3
20260509145007 53 101 1.0 3.0 0.00 0.00 0.00 85 1022.5
20260509144524 53 25 1.0 3.0 0.00 0.00 0.00 85 1022.5
20260509144012 53 34 2.0 3.0 0.00 0.00 0.00 85 1022.4
20260509143509 53 103 0.0 1.0 0.00 0.00 0.00 86 1022.3
20260509143022 52 108 0.0 2.0 0.00 0.00 0.00 87 1022.3
20260509142510 52 103 1.0 2.0 0.00 0.00 0.00 88 1022.4
20260509142011 51 101 0.0 2.0 0.00 0.00 0.00 89 1022.6
20260509141528 51 71 0.0 0.0 0.00 0.00 0.00 90 1022.5
20260509141010 50 71 0.0 0.0 0.00 0.00 0.00 90 1022.4
20260509140514 50 71 0.0 0.0 0.00 0.00 0.00 91 1022.5
20260509140027 49 71 0.0 0.0 0.00 0.00 0.00 91 1022.4
20260509135508 48 71 0.0 0.0 0.00 0.00 0.00 91 1022.4
20260509135009 47 71 0.0 0.0 0.00 0.00 0.00 91 1022.5
20260509134519 47 71 0.0 0.0 0.00 0.00 0.00 91 1022.6
20260509134009 47 71 0.0 0.0 0.00 0.00 0.00 91 1022.6
20260509133508 47 71 0.0 0.0 0.00 0.00 0.00 91 1022.6
20260509133003 46 71 0.0 0.0 0.00 0.00 0.00 91 1022.6
20260509132505 46 71 0.0 0.0 0.00 0.00 0.00 91 1022.6
20260509132004 46 71 0.0 0.0 0.00 0.00 0.00 91 1022.7
20260509131511 46 71 0.0 0.0 0.00 0.00 0.00 91 1022.7
20260509131004 46 71 0.0 0.0 0.00 0.00 0.00 91 1022.7
20260509130504 46 71 0.0 0.0 0.00 0.00 0.00 91 1022.7
20260509130027 46 71 0.0 0.0 0.00 0.00 0.00 91 1022.5
20260509125504 46 128 0.0 0.0 0.00 0.00 0.00 91 1022.5
20260509125008 46 130 0.0 0.0 0.00 0.00 0.00 91 1022.6
20260509124520 46 130 0.0 0.0 0.00 0.00 0.00 91 1022.5
20260509124009 46 173 0.0 0.0 0.00 0.00 0.00 91 1022.5
20260509123507 46 173 0.0 0.0 0.00 0.00 0.00 91 1022.5
20260509123021 46 173 0.0 0.0 0.00 0.00 0.00 90 1022.5
20260509122506 46 173 0.0 0.0 0.00 0.00 0.00 91 1022.6
20260509122010 47 173 0.0 0.0 0.00 0.00 0.00 91 1022.6
20260509121510 46 173 0.0 0.0 0.00 0.00 0.00 90 1022.6
20260509121004 46 173 0.0 0.0 0.00 0.00 0.00 90 1022.7
20260509120505 47 173 0.0 0.0 0.00 0.00 0.00 90 1022.6
20260509120013 47 173 0.0 0.0 0.00 0.00 0.00 90 1022.7
20260509115507 47 173 0.0 0.0 0.00 0.00 0.00 90 1022.6
20260509115005 47 173 0.0 0.0 0.00 0.00 0.00 89 1022.6
20260509114516 47 173 0.0 0.0 0.00 0.00 0.00 89 1022.6
20260509114007 47 173 0.0 0.0 0.00 0.00 0.00 89 1022.6
20260509113507 48 173 0.0 0.0 0.00 0.00 0.00 89 1022.6
20260509113017 48 173 0.0 0.0 0.00 0.00 0.00 89 1022.5
20260509112506 48 173 0.0 0.0 0.00 0.00 0.00 89 1022.6
20260509112006 48 173 0.0 0.0 0.00 0.00 0.00 89 1022.7
20260509111526 48 173 0.0 0.0 0.00 0.00 0.00 89 1022.7
20260509111014 48 173 0.0 0.0 0.00 0.00 0.00 89 1022.7
20260509110512 48 173 0.0 0.0 0.00 0.00 0.00 89 1022.7
20260509110007 49 173 0.0 0.0 0.00 0.00 0.00 89 1022.7
20260509105503 49 173 0.0 0.0 0.00 0.00 0.00 88 1022.7
20260509105003 49 173 0.0 0.0 0.00 0.00 0.00 88 1022.8
20260509104511 49 173 0.0 0.0 0.00 0.00 0.00 88 1022.9
20260509104008 49 173 0.0 0.0 0.00 0.00 0.00 88 1022.9
20260509103506 50 173 0.0 0.0 0.00 0.00 0.00 88 1022.9
20260509103019 50 173 0.0 0.0 0.00 0.00 0.00 88 1023.0
20260509102509 50 173 0.0 0.0 0.00 0.00 0.00 87 1022.9
20260509102008 50 173 0.0 0.0 0.00 0.00 0.00 87 1022.9
20260509101531 51 173 0.0 0.0 0.00 0.00 0.00 86 1023.0
20260509101007 51 173 0.0 0.0 0.00 0.00 0.00 86 1022.9
20260509100508 51 173 0.0 0.0 0.00 0.00 0.00 86 1023.0
20260509100031 51 173 0.0 0.0 0.00 0.00 0.00 86 1023.0
20260509095508 51 173 0.0 0.0 0.00 0.00 0.00 85 1023.1
20260509095007 52 173 0.0 0.0 0.00 0.00 0.00 85 1023.2
20260509094528 52 173 0.0 0.0 0.00 0.00 0.00 85 1023.2
20260509094004 52 173 0.0 0.0 0.00 0.00 0.00 85 1023.2
20260509093508 52 173 0.0 0.0 0.00 0.00 0.00 85 1023.2
20260509093014 52 150 0.0 0.0 0.00 0.00 0.00 85 1023.2
20260509092507 52 152 0.0 0.0 0.00 0.00 0.00 85 1023.3
20260509092010 52 153 0.0 0.0 0.00 0.00 0.00 85 1023.4
20260509091522 52 153 0.0 0.0 0.00 0.00 0.00 84 1023.4
20260509091008 52 138 0.0 0.0 0.00 0.00 0.00 85 1023.4
20260509090510 52 138 0.0 1.0 0.00 0.00 0.00 84 1023.4
20260509090035 52 205 0.0 4.0 0.00 0.00 0.00 84 1023.5
20260509085506 52 227 1.0 4.0 0.00 0.00 0.00 85 1023.4
20260509085010 52 189 0.0 2.0 0.00 0.00 0.00 85 1023.4
20260509084527 52 189 1.0 2.0 0.00 0.00 0.00 84 1023.4
20260509084008 52 208 0.0 2.0 0.00 0.00 0.00 84 1023.4
20260509083509 52 172 0.0 2.0 0.00 0.00 0.00 84 1023.5
20260509083044 52 172 0.0 2.0 0.00 0.00 0.00 84 1023.4
20260509082509 52 172 0.0 2.0 0.00 0.00 0.00 85 1023.4
20260509082006 52 186 0.0 2.0 0.00 0.00 0.00 84 1023.4
20260509081518 52 186 0.0 2.0 0.00 0.00 0.00 84 1023.3
20260509081006 52 186 0.0 2.0 0.00 0.00 0.00 84 1023.3
20260509080510 52 186 1.0 2.0 0.00 0.00 0.00 84 1023.3
20260509080025 53 220 0.0 2.0 0.00 0.00 0.00 84 1023.3
20260509075507 53 208 0.0 2.0 0.00 0.00 0.00 84 1023.2
20260509075008 53 219 1.0 2.0 0.00 0.00 0.00 84 1023.2
20260509074508 53 190 0.0 2.0 0.00 0.00 0.00 84 1023.1
20260509074003 53 190 1.0 2.0 0.00 0.00 0.00 84 1023.1
20260509073503 53 192 0.0 2.0 0.00 0.00 0.00 84 1023.2
20260509073020 52 192 0.0 2.0 0.00 0.00 0.00 84 1023.1
20260509072507 52 192 0.0 2.0 0.00 0.00 0.00 84 1023.2
20260509072007 52 192 0.0 2.0 0.00 0.00 0.00 84 1023.1
20260509071518 52 174 0.0 3.0 0.00 0.00 0.00 84 1023.1
20260509071006 52 231 0.0 3.0 0.00 0.00 0.00 84 1023.0
20260509070506 52 228 0.0 3.0 0.00 0.00 0.00 85 1023.1
20260509070020 51 211 0.0 0.0 0.00 0.00 0.00 85 1023.1
20260509065500 51 211 0.0 0.0 0.00 0.00 0.00 85 1023.0
20260509065004 51 211 0.0 0.0 0.00 0.00 0.00 84 1023.0
20260509064504 51 211 0.0 0.0 0.00 0.00 0.00 85 1023.0
20260509064004 51 211 0.0 0.0 0.00 0.00 0.00 84 1023.0
20260509063505 51 211 0.0 0.0 0.00 0.00 0.00 85 1022.9
20260509063018 51 211 0.0 0.0 0.00 0.00 0.00 85 1022.9
20260509062504 50 211 0.0 0.0 0.00 0.00 0.00 84 1022.9
20260509062007 50 211 0.0 0.0 0.00 0.00 0.00 84 1022.9
20260509061517 50 211 0.0 0.0 0.00 0.00 0.00 83 1022.9
20260509061006 50 211 0.0 0.0 0.00 0.00 0.00 84 1022.9
20260509060506 51 211 0.0 0.0 0.00 0.00 0.00 84 1022.8
20260509060017 51 211 0.0 0.0 0.00 0.00 0.00 83 1022.8
20260509055509 51 211 0.0 0.0 0.00 0.00 0.00 82 1022.8
20260509055007 51 211 0.0 0.0 0.00 0.00 0.00 83 1022.9
20260509054522 51 211 0.0 0.0 0.00 0.00 0.00 83 1022.8
20260509054009 51 211 0.0 0.0 0.00 0.00 0.00 82 1022.8
20260509053504 51 211 0.0 0.0 0.00 0.00 0.00 81 1022.9
20260509053004 52 211 0.0 0.0 0.00 0.00 0.00 81 1022.8
20260509052504 52 211 0.0 0.0 0.00 0.00 0.00 81 1022.8
20260509052004 52 211 0.0 0.0 0.00 0.00 0.00 80 1022.8
20260509051512 52 211 0.0 0.0 0.00 0.00 0.00 80 1022.8
20260509051004 52 211 0.0 0.0 0.00 0.00 0.00 79 1022.8
20260509050508 52 213 0.0 2.0 0.00 0.00 0.00 79 1022.8
20260509050020 52 213 0.0 2.0 0.00 0.00 0.00 78 1022.8
20260509045515 52 154 0.0 2.0 0.00 0.00 0.00 78 1022.8
20260509045006 52 189 0.0 0.0 0.00 0.00 0.00 79 1022.8
20260509044522 52 199 0.0 0.0 0.00 0.00 0.00 78 1022.7
20260509044011 52 199 0.0 0.0 0.00 0.00 0.00 78 1022.7
20260509043508 53 199 0.0 0.0 0.00 0.00 0.00 77 1022.7
20260509043024 53 199 0.0 0.0 0.00 0.00 0.00 77 1022.7
20260509042508 53 199 0.0 0.0 0.00 0.00 0.00 77 1022.8
20260509042003 53 199 0.0 0.0 0.00 0.00 0.00 76 1022.7
20260509041506 53 199 0.0 0.0 0.00 0.00 0.00 76 1022.7
20260509041004 53 199 0.0 0.0 0.00 0.00 0.00 76 1022.7
20260509040507 54 199 0.0 0.0 0.00 0.00 0.00 75 1022.6
20260509040025 54 188 0.0 0.0 0.00 0.00 0.00 75 1022.5
20260509035507 54 268 0.0 0.0 0.00 0.00 0.00 75 1022.4
20260509035008 54 268 0.0 0.0 0.00 0.00 0.00 75 1022.3
20260509034518 54 268 0.0 0.0 0.00 0.00 0.00 74 1022.2
20260509034008 54 268 0.0 0.0 0.00 0.00 0.00 74 1022.1
20260509033506 55 275 0.0 0.0 0.00 0.00 0.00 74 1022.2
20260509033018 55 275 0.0 0.0 0.00 0.00 0.00 73 1022.2
20260509032511 55 275 0.0 0.0 0.00 0.00 0.00 72 1022.2
20260509032012 56 275 0.0 0.0 0.00 0.00 0.00 71 1021.9
20260509031547 56 246 0.0 0.0 0.00 0.00 0.00 71 1021.8
20260509031012 56 246 0.0 0.0 0.00 0.00 0.00 70 1021.8
20260509030506 56 265 0.0 0.0 0.00 0.00 0.00 69 1021.8
20260509030012 56 188 0.0 1.0 0.00 0.00 0.00 69 1021.8
20260509025503 57 188 0.0 3.0 0.00 0.00 0.00 68 1021.7
20260509025007 57 208 0.0 3.0 0.00 0.00 0.00 67 1021.7
20260509024514 57 218 0.0 2.0 0.00 0.00 0.00 66 1021.7
20260509024008 58 208 0.0 2.0 0.00 0.00 0.00 66 1021.7
20260509023509 58 175 0.0 2.0 0.00 0.00 0.00 66 1021.8
20260509023024 58 175 0.0 4.0 0.00 0.00 0.00 66 1021.7
20260509022507 58 189 1.0 4.0 0.00 0.00 0.00 66 1021.7
20260509022006 58 204 1.0 3.0 0.00 0.00 0.00 65 1021.7
20260509021534 58 195 1.0 7.0 0.00 0.00 0.00 65 1021.7
20260509021010 58 218 1.0 7.0 0.00 0.00 0.00 65 1021.7
20260509020508 58 219 2.0 7.0 0.00 0.00 0.00 64 1021.7
20260509020024 58 213 1.0 7.0 0.00 0.00 0.00 63 1021.7
20260509015509 58 229 2.0 7.0 0.00 0.00 0.00 63 1021.8
20260509015010 59 205 2.0 6.0 0.00 0.00 0.00 62 1021.8
20260509014511 59 206 1.0 2.0 0.00 0.00 0.00 62 1021.8
20260509014010 59 235 1.0 2.0 0.00 0.00 0.00 61 1021.6
20260509013507 59 227 0.0 2.0 0.00 0.00 0.00 62 1021.5
20260509013016 59 216 0.0 4.0 0.00 0.00 0.00 61 1021.5
20260509012510 59 216 1.0 6.0 0.00 0.00 0.00 61 1021.7
20260509012010 59 225 0.0 6.0 0.00 0.00 0.00 61 1021.6
20260509011523 59 156 0.0 6.0 0.00 0.00 0.00 61 1021.6
20260509011006 59 234 1.0 5.0 0.00 0.00 0.00 60 1021.6
20260509010509 60 142 0.0 2.0 0.00 0.00 0.00 61 1021.7
20260509010022 60 310 0.0 2.0 0.00 0.00 0.00 59 1021.7
20260509005511 59 223 1.0 4.0 0.00 0.00 0.00 60 1021.7
20260509005011 60 212 1.0 4.0 0.00 0.00 0.00 59 1021.8
20260509004536 59 213 1.0 4.0 0.00 0.00 0.00 60 1021.7
20260509004016 59 211 0.0 4.0 0.00 0.00 0.00 59 1021.7
20260509003506 60 209 1.0 7.0 0.00 0.00 0.00 59 1021.7
20260509003014 60 205 2.0 7.0 0.00 0.00 0.00 58 1021.8
20260509002507 60 203 1.0 4.0 0.00 0.00 0.00 58 1021.8
20260509002010 60 209 1.0 4.0 0.00 0.00 0.00 59 1021.8
20260509001505 59 208 1.0 8.0 0.00 0.00 0.00 59 1021.8
20260509001004 59 227 3.0 8.0 0.00 0.00 0.00 59 1021.8
20260509000503 59 192 2.0 6.0 0.00 0.00 0.00 58 1021.8
20260509000004 60 213 1.0 5.0 0.00 0.00 0.00 59 1021.7
20260508235505 60 254 1.0 2.0 0.00 0.00 0.00 58 1021.7
20260508235006 60 238 1.0 3.0 0.00 0.00 0.00 57 1021.7
20260508234512 60 281 0.0 7.0 0.00 0.00 0.00 58 1021.7
20260508234003 61 205 1.0 7.0 0.00 0.00 0.00 54 1021.7
20260508233508 62 261 2.0 7.0 0.00 0.00 0.00 55 1021.6
20260508233012 62 294 1.0 6.0 0.00 0.00 0.00 55 1021.7
20260508232505 61 242 2.0 6.0 0.00 0.00 0.00 54 1021.6
20260508232009 62 227 1.0 4.0 0.00 0.00 0.00 54 1021.6
20260508231515 62 298 2.0 8.0 0.00 0.00 0.00 54 1021.7
20260508231008 61 161 1.0 8.0 0.00 0.00 0.00 55 1021.7
20260508230508 61 140 2.0 7.0 0.00 0.00 0.00 56 1021.8
20260508230004 61 207 2.0 8.0 0.00 0.00 0.00 53 1021.8
20260508225504 61 196 2.0 8.0 0.00 0.00 0.00 54 1021.7
20260508225004 62 153 1.0 9.0 0.00 0.00 0.00 54 1021.7
20260508224508 61 173 4.0 9.0 0.00 0.00 0.00 53 1021.7
20260508224003 62 213 1.0 7.0 0.00 0.00 0.00 53 1021.8
20260508223503 62 248 1.0 7.0 0.00 0.00 0.00 54 1021.9
20260508223018 61 287 0.0 9.0 0.00 0.00 0.00 54 1021.9
20260508222503 61 147 2.0 10.0 0.00 0.00 0.00 53 1021.8
20260508222012 61 267 4.0 10.0 0.00 0.00 0.00 53 1021.8
20260508221516 61 205 3.0 14.0 0.00 0.00 0.00 56 1021.8
20260508221008 61 205 6.0 13.0 0.00 0.00 0.00 55 1021.8
20260508220507 61 232 1.0 4.0 0.00 0.00 0.00 54 1021.8
20260508220019 61 196 2.0 7.0 0.00 0.00 0.00 56 1021.8
20260508215516 61 226 2.0 7.0 0.00 0.00 0.00 54 1021.8
20260508215009 61 153 3.0 9.0 0.00 0.00 0.00 54 1021.9
20260508214506 61 239 2.0 9.0 0.00 0.00 0.00 53 1021.8
20260508214003 62 240 2.0 9.0 0.00 0.00 0.00 53 1021.8
20260508213504 62 201 1.0 10.0 0.00 0.00 0.00 53 1021.9
20260508213018 61 9 2.0 10.0 0.00 0.00 0.00 56 1021.9
20260508212502 60 219 3.0 9.0 0.00 0.00 0.00 57 1021.8
20260508212007 61 175 2.0 9.0 0.00 0.00 0.00 54 1021.9
20260508211513 60 225 2.0 9.0 0.00 0.00 0.00 58 1021.9
20260508211008 60 191 4.0 8.0 0.00 0.00 0.00 56 1021.9
20260508210507 60 239 3.0 10.0 0.00 0.00 0.00 58 1021.9
20260508210027 60 200 2.0 10.0 0.00 0.00 0.00 60 1021.8
20260508205512 60 200 1.0 7.0 0.00 0.00 0.00 57 1021.8
20260508205009 61 228 3.0 10.0 0.00 0.00 0.00 57 1021.7
20260508204528 60 183 2.0 11.0 0.00 0.00 0.00 59 1021.6
20260508204010 59 167 3.0 11.0 0.00 0.00 0.00 60 1021.6
20260508203503 59 172 2.0 10.0 0.00 0.00 0.00 57 1021.6
20260508203008 58 350 1.0 10.0 0.00 0.00 0.00 58 1021.6
20260508202504 59 172 4.0 10.0 0.00 0.00 0.00 60 1021.5
20260508202003 59 192 2.0 10.0 0.00 0.00 0.00 59 1021.5
20260508201514 57 221 1.0 10.0 0.00 0.00 0.00 62 1021.5
20260508201006 57 198 2.0 12.0 0.00 0.00 0.00 62 1021.6
20260508200504 56 229 3.0 12.0 0.00 0.00 0.00 61 1021.6
20260508200023 56 187 3.0 12.0 0.00 0.00 0.00 61 1021.5
20260508195511 56 207 4.0 8.0 0.00 0.00 0.00 60 1021.5
20260508195008 57 225 1.0 4.0 0.00 0.00 0.00 60 1021.5
20260508194525 57 277 1.0 4.0 0.00 0.00 0.00 60 1021.4
20260508194008 57 255 2.0 5.0 0.00 0.00 0.00 61 1021.5
20260508193508 57 181 1.0 8.0 0.00 0.00 0.00 62 1021.6
20260508193025 56 202 3.0 13.0 0.00 0.00 0.00 62 1021.5
20260508192511 56 241 2.0 13.0 0.00 0.00 0.00 64 1021.4
20260508192006 56 211 4.0 11.0 0.00 0.00 0.00 62 1021.3
20260508191509 58 304 2.0 9.0 0.00 0.00 0.00 62 1021.4
20260508191003 56 202 1.0 4.0 0.00 0.00 0.00 65 1021.5
20260508190504 56 237 2.0 11.0 0.00 0.00 0.00 65 1021.4
20260508190018 54 238 2.0 11.0 0.00 0.00 0.00 68 1021.5
20260508185506 54 169 4.0 10.0 0.00 0.00 0.00 68 1021.5
20260508185007 54 190 3.0 9.0 0.00 0.00 0.00 67 1021.5
20260508184522 54 213 2.0 7.0 0.00 0.00 0.00 66 1021.5
20260508184006 54 246 2.0 7.0 0.00 0.00 0.00 66 1021.5
20260508183512 54 245 2.0 5.0 0.00 0.00 0.00 67 1021.5
20260508183030 54 222 1.0 6.0 0.00 0.00 0.00 69 1021.5
20260508182509 54 141 1.0 6.0 0.00 0.00 0.00 69 1021.4
20260508182008 54 229 1.0 6.0 0.00 0.00 0.00 68 1021.3
20260508181525 54 201 1.0 6.0 0.00 0.00 0.00 68 1021.2
20260508181013 55 247 1.0 6.0 0.00 0.00 0.00 68 1021.0
20260508180509 54 236 1.0 11.0 0.00 0.00 0.00 69 1020.9
20260508180019 54 303 3.0 11.0 0.00 0.00 0.00 68 1020.8
20260508175507 54 227 2.0 9.0 0.00 0.00 0.00 70 1020.8
20260508175006 54 155 3.0 11.0 0.00 0.00 0.00 69 1020.8
20260508174518 54 185 3.0 11.0 0.00 0.00 0.00 70 1020.9
20260508174009 53 219 2.0 10.0 0.00 0.00 0.00 70 1020.8
20260508173508 53 206 3.0 9.0 0.00 0.00 0.00 71 1020.8
20260508173021 53 224 3.0 9.0 0.00 0.00 0.00 72 1020.6
20260508172514 52 256 4.0 8.0 0.00 0.00 0.00 73 1020.5
20260508172012 53 213 1.0 8.0 0.00 0.00 0.00 73 1020.4
20260508171529 53 231 2.0 6.0 0.00 0.00 0.00 72 1020.3
20260508171013 53 234 0.0 6.0 0.00 0.00 0.00 73 1020.3
20260508170508 52 188 1.0 7.0 0.00 0.00 0.00 74 1020.1
20260508170028 52 215 2.0 7.0 0.00 0.00 0.00 73 1020.2
20260508165509 52 217 1.0 4.0 0.00 0.00 0.00 77 1020.2
20260508165008 52 180 0.0 2.0 0.00 0.00 0.00 76 1020.1
20260508164516 51 205 0.0 5.0 0.00 0.00 0.00 75 1020.2
20260508164011 51 244 1.0 5.0 0.00 0.00 0.00 74 1020.1
20260508163506 51 179 1.0 5.0 0.00 0.00 0.00 74 1020.1
20260508163029 52 161 2.0 5.0 0.00 0.00 0.00 73 1020.1